[[{"header":{"parameterUnit":"m.s-1","parameterCategory":1,"la1":30.2992,"la2":30.254,"lo1":-89.0895,"lo2":-89.0443,"dy":0.0025,"dx":0.0025,"nx":19,"ny":19,"refTime":"2026-05-18T09:00:00:Z","depth":0,"parameterNumber":2,"parameterNumberName":"U-component_of_WINDS"},"data":[0,0,0,-3.7853,-3.7857,-3.8036,-3.8037,-3.8263,-3.8265,0,0,0,0,0,0,0,0,0,0,0,-3.7799,-3.78,-3.7853,-3.7857,-3.8036,-3.8037,-3.8262,-3.8265,0,0,0,0,0,0,0,0,0,0,0,-3.7798,-3.78,-3.7802,-3.7858,-3.8036,-3.8037,-3.8262,-3.8128,0,0,0,0,0,0,0,0,0,0,-3.7954,-3.7903,-3.7799,-3.7802,-3.7859,-3.8036,-3.8037,-3.8122,-3.8136,-3.818,0,-3.822,0,-3.8246,-3.828,-3.8281,0,0,0,-3.7859,-3.789,-3.794,-3.7802,-3.7861,-3.8036,-3.7956,-3.813,-3.8147,-3.82,-3.8223,-3.8231,-3.825,-3.8281,-3.8282,-3.8534,-3.8535,0,0,-3.7849,-3.783,-3.7929,-3.7951,-3.7923,-3.795,-3.7961,-3.814,-3.8163,-3.8224,-3.8237,-3.8253,-3.8283,-3.8284,-3.8533,-3.8534,0,0,0,-3.782,-3.7823,-3.7868,-3.7941,-3.7974,-3.7955,-3.7968,-3.8155,-3.8172,-3.8239,-3.8256,-3.8284,-3.8287,-3.8532,-3.8533,-3.857,0,0,0,-3.7814,-3.7806,-3.7864,-3.7854,-3.7971,-3.8067,-3.798,-3.816,-3.818,-3.8255,-3.8284,-3.8289,-3.853,-3.8533,-3.8566,-3.8589,0,0,0,-3.7787,-3.7803,-3.7828,-3.7853,-3.7929,-3.8065,-3.8091,-3.8164,-3.8191,-3.8281,-3.8289,-3.853,-3.8532,-3.8563,-3.8584,-3.8649,0,0,0,-3.7754,-3.7858,-3.7828,-3.7952,-3.7928,-3.8086,-3.809,-3.821,-3.8291,-3.8285,-3.8531,-3.8533,-3.8562,-3.8581,-3.8646,-3.8699,-3.872,0,0,-3.7875,-3.7872,-3.7946,-3.7925,-3.8084,-3.8061,-3.8225,-3.8318,-3.8344,-3.8469,-3.8475,-3.8567,-3.8584,-3.8649,-3.8848,-3.8864,0,0,0,-3.7978,-3.8031,-3.8077,-3.8154,-3.8228,-3.8293,-3.8362,-3.8397,-3.8504,-3.8404,-3.861,-3.862,-3.8659,-3.8685,-3.87,-3.8733,-3.8545,-3.8545,-3.8545,-3.8121,-3.8149,-3.8273,-3.8322,-3.8397,-3.8468,-3.8531,-3.859,-3.8596,-3.8644,-3.8681,-3.8799,-3.8829,-3.884,-3.8875,-3.8713,-3.8713,-3.8713,-3.8714,-3.8299,-3.8377,-3.8384,-3.8507,-3.8536,-3.8639,-3.8712,-3.8713,-3.8813,-3.8773,-3.8809,-3.8761,-3.8857,-3.8889,-3.8717,-3.8716,-3.8716,-3.8715,-3.8715,-3.8394,-3.8436,-3.8477,-3.8592,-3.8677,-3.8724,-3.882,-3.8843,-3.8866,-3.8901,-3.8942,-3.8941,-3.8942,-3.8919,-3.892,-3.892,-3.8921,-3.8921,-3.8921,-3.8475,-3.852,-3.8598,-3.8686,-3.8738,-3.8811,-3.8884,-3.8937,-3.9001,-3.901,-3.9011,-3.9011,-3.8862,-3.8823,-3.8928,-3.8926,-3.8926,-3.8925,-3.8925,-3.8643,-3.8609,-3.8729,-3.8782,-3.8886,-3.8969,-3.8999,-3.9104,-3.9151,-3.9197,-3.9191,-3.9077,-3.9076,-3.9065,-3.9032,-3.9185,-3.9185,-3.9185,-3.9185,-3.8721,-3.8723,-3.8851,-3.8934,-3.9018,-3.9057,-3.9192,-3.925,-3.9305,-3.9336,-3.9318,-3.9278,-3.9265,-3.9271,-3.9255,-3.9225,-3.9424,-3.9425,-3.9425,-3.8825,-3.8836,-3.8946,-3.9,-3.9084,-3.9155,-3.9282,-3.9377,-3.9432,-3.9435,-3.936,-3.935,-3.9285,-3.9263,-3.9261,-3.9237,-3.9182,0,0]},{"header":{"parameterUnit":"m.s-1","parameterCategory":1,"la1":30.2992,"la2":30.254,"lo1":-89.0895,"lo2":-89.0443,"dy":0.0025,"dx":0.0025,"nx":19,"ny":19,"refTime":"2026-05-18T09:00:00:Z","depth":0,"parameterNumber":3,"parameterNumberName":"V-component_of_WINDS"},"data":[0,0,0,2.8476,2.8478,2.8543,2.8543,2.8629,2.863,0,0,0,0,0,0,0,0,0,0,0,2.8459,2.846,2.8476,2.8478,2.8543,2.8543,2.8629,2.863,0,0,0,0,0,0,0,0,0,0,0,2.8459,2.846,2.8461,2.8478,2.8543,2.8543,2.8628,2.8578,0,0,0,0,0,0,0,0,0,0,2.8514,2.8501,2.846,2.8461,2.8479,2.8543,2.8543,2.8576,2.8581,2.8601,0,2.862,0,2.8626,2.8636,2.8636,0,0,0,2.8475,2.8497,2.8512,2.8461,2.8479,2.8543,2.8513,2.8579,2.8585,2.8608,2.8621,2.8624,2.8628,2.8636,2.8637,2.876,2.876,0,0,2.8472,2.8472,2.8508,2.8517,2.8508,2.8511,2.8515,2.8583,2.8596,2.8621,2.8626,2.8629,2.8637,2.8637,2.8759,2.876,0,0,0,2.8463,2.847,2.8484,2.8513,2.8525,2.8513,2.8518,2.8593,2.8597,2.8627,2.863,2.8637,2.8638,2.8758,2.8759,2.8794,0,0,0,2.8461,2.8465,2.8482,2.8483,2.8524,2.856,2.8526,2.8593,2.86,2.863,2.8637,2.8639,2.8758,2.8759,2.8792,2.881,0,0,0,2.8454,2.8464,2.8474,2.8483,2.8511,2.8559,2.8567,2.8594,2.8603,2.8636,2.8639,2.8757,2.8759,2.8789,2.8807,2.8844,0,0,0,2.8447,2.8503,2.8475,2.8539,2.8511,2.8581,2.8567,2.8619,2.8652,2.8638,2.8758,2.8759,2.8789,2.8804,2.8841,2.8875,2.8889,0,0,2.8518,2.8512,2.8549,2.8526,2.8602,2.8571,2.8651,2.868,2.8682,2.8733,2.8736,2.8793,2.8806,2.8843,2.8968,2.8979,0,0,0,2.8572,2.8599,2.8619,2.8652,2.8676,2.8699,2.8716,2.8727,2.8771,2.8709,2.8816,2.8824,2.8845,2.8861,2.8871,2.8889,2.8767,2.8767,2.8766,2.8672,2.8673,2.8736,2.8746,2.8777,2.8795,2.8821,2.8838,2.8829,2.8854,2.8869,2.8945,2.8964,2.8971,2.899,2.8887,2.8887,2.8888,2.8888,2.8776,2.8815,2.8803,2.886,2.8861,2.8908,2.8928,2.892,2.8964,2.8933,2.8952,2.8919,2.8983,2.9,2.889,2.889,2.8889,2.8889,2.8889,2.8841,2.886,2.8874,2.8922,2.8959,2.8966,2.9009,2.9008,2.9007,2.9026,2.9042,2.9041,2.9041,2.9034,2.9034,2.9034,2.9035,2.9035,2.9035,2.8904,2.8918,2.8956,2.8988,2.901,2.9037,2.9057,2.9078,2.91,2.9095,2.9095,2.9084,2.899,2.8966,2.9039,2.9038,2.9038,2.9037,2.9037,2.9009,2.8986,2.9043,2.9065,2.9103,2.914,2.9139,2.9181,2.9198,2.9219,2.9204,2.9135,2.9127,2.912,2.91,2.9203,2.9203,2.9203,2.9203,2.9064,2.9061,2.9121,2.9156,2.9189,2.9195,2.9259,2.9275,2.9288,2.9298,2.9283,2.9257,2.9249,2.9247,2.9237,2.9218,2.9349,2.9349,2.9349,2.9129,2.913,2.9185,2.9199,2.923,2.9255,2.9316,2.9356,2.9365,2.9355,2.9306,2.93,2.9258,2.9245,2.9233,2.9217,2.9183,0,0]}]]